User: anonymous   Login
Location: Unspecified
(0.0000°N, 0.0000°E)
Time: 22:19:47
(UTC+00:00)
Language:

OSIRIS - Orbit

View from above orbital plane
View from above orbital plane
View from above satellite
View from above satellite

Ground track
Ground track

The orbit data is extracted from the following two-line orbital elements,

1 43027U 98067NL  18343.97949979  .00070426  00000-0  37981-3 0  9998
2 43027  51.6341 192.7476 0004360 155.4671 204.6539 15.79493857 60043
Epoch (UTC): 09 December 2018 23:30:28
Eccentricity: 0.0004360
inclination: 51.6341°
perigee height: 329 km
apogee height: 335 km
right ascension of ascending node: 192.7476°
argument of perigee: 155.4671°
revolutions per day: 15.79493857
mean anomaly at epoch: 204.6539°
orbit number at epoch: 6004

The dashed part of the orbit path shows where the satellite is in the earth's shadow,  

DLR